Location: Newark
(52.2090°N, 4.1550°W)
Time: 14:14:15
(UTC+00:00)

A-11 Canister half - All Passes

Search period start: 17 September 2019 00:00
Search period end: 27 September 2019 00:00
Orbit: 1527 x 1682 km, 47.3° (Epoch: 16 September)

Date Brightness Start Highest point End Pass type
(mag) Time Alt. Az. Time Alt. Az. Time Alt. Az.
17 Sep - 03:26:16 10° SSE 03:31:52 18° SE 03:37:34 10° E visible
17 Sep - 05:26:06 10° SW 05:34:52 45° SSE 05:43:55 10° E daylight
17 Sep - 07:29:35 10° WSW 07:39:02 66° S 07:48:49 10° E daylight
17 Sep - 09:34:05 10° W 09:43:33 58° SSW 09:53:16 10° ESE daylight
17 Sep - 11:39:07 10° W 11:47:20 31° SW 11:55:42 10° SSE daylight
18 Sep - 03:05:06 10° SSE 03:10:22 17° SE 03:15:43 10° E visible
18 Sep - 05:04:36 10° SW 05:13:17 43° SSE 05:22:15 10° E visible
18 Sep - 07:08:00 10° WSW 07:17:25 66° S 07:27:10 10° E daylight
18 Sep - 09:12:29 10° W 09:21:56 59° SSW 09:31:40 10° ESE daylight
18 Sep - 11:17:27 10° W 11:25:46 32° SW 11:34:15 10° SSE daylight
19 Sep - 02:43:58 10° SSE 02:48:52 15° SE 02:53:50 10° E visible
19 Sep - 04:43:07 10° SW 04:51:43 42° SSE 05:00:35 10° E visible
19 Sep - 06:46:25 10° WSW 06:55:48 65° S 07:05:32 10° E daylight
19 Sep - 08:50:53 10° W 09:00:19 60° SSW 09:10:03 10° ESE daylight
19 Sep - 10:55:48 10° W 11:04:12 34° SW 11:12:46 10° SSE daylight
20 Sep - 02:22:52 10° SSE 02:27:21 14° SE 02:31:53 10° E visible
20 Sep - 04:21:38 10° SSW 04:30:09 40° SSE 04:38:55 10° E visible
20 Sep - 06:24:50 10° WSW 06:34:11 65° S 06:43:52 10° E daylight
20 Sep - 08:29:16 10° W 08:38:42 61° SSW 08:48:25 10° ESE daylight
20 Sep - 10:34:09 10° W 10:42:37 35° SW 10:51:17 10° SSE daylight
20 Sep - 12:43:23 10° WSW 12:45:17 11° WSW 12:47:11 10° SW daylight
21 Sep - 02:01:51 10° SSE 02:05:52 13° SE 02:09:54 10° E visible
21 Sep - 04:00:10 10° SSW 04:08:35 39° SE 04:17:16 10° E visible
21 Sep - 06:03:16 10° WSW 06:12:34 64° S 06:22:14 10° E daylight
21 Sep - 08:07:40 10° W 08:17:05 62° SSW 08:26:48 10° ESE daylight
21 Sep - 10:12:31 10° W 10:21:03 36° SW 10:29:47 10° SSE daylight
21 Sep - 12:20:54 10° WSW 12:23:46 12° WSW 12:26:39 10° SW daylight
22 Sep - 01:40:55 10° SE 01:44:22 12° SE 01:47:50 10° ESE visible
22 Sep - 03:38:41 10° SSW 03:47:02 38° SE 03:55:35 10° E visible
22 Sep - 05:41:41 10° WSW 05:50:58 63° SSE 06:00:35 10° E daylight
22 Sep - 07:46:04 10° W 07:55:28 62° SSW 08:05:11 10° ESE daylight
22 Sep - 09:50:53 10° W 09:59:28 37° SW 10:08:17 10° SSE daylight
22 Sep - 11:58:43 10° WSW 12:02:15 12° SW 12:05:49 10° SW daylight
23 Sep - 01:20:08 10° SE 01:22:53 12° ESE 01:25:37 10° ESE visible
23 Sep - 03:17:14 10° SSW 03:25:29 36° SE 03:33:55 10° E visible
23 Sep - 05:20:07 10° WSW 05:29:22 62° SSE 05:38:55 10° E visible
23 Sep - 07:24:28 10° W 07:33:51 63° SSW 07:43:33 10° ESE daylight
23 Sep - 09:29:15 10° W 09:37:53 38° SW 09:46:47 10° SSE daylight
23 Sep - 11:36:39 10° W 11:40:44 13° SW 11:44:52 10° SSW daylight
24 Sep - 00:59:40 10° SE 01:01:23 11° ESE 01:03:06 10° ESE visible
24 Sep - 02:55:47 10° SSW 03:03:55 35° SE 03:12:15 10° E visible
24 Sep - 04:58:33 10° WSW 05:07:46 62° SSE 05:17:17 10° E visible
24 Sep - 07:02:52 10° W 07:12:14 64° S 07:21:56 10° ESE daylight
24 Sep - 09:07:37 10° W 09:16:19 40° SSW 09:25:15 10° SSE daylight
24 Sep - 11:14:41 10° W 11:19:13 14° SW 11:23:48 10° SSW daylight
25 Sep - 02:34:21 10° SSW 02:42:23 34° SE 02:50:34 10° E visible
25 Sep - 04:36:59 10° WSW 04:46:10 61° SSE 04:55:38 10° E visible
25 Sep - 06:41:17 10° W 06:50:38 64° S 07:00:18 10° ESE daylight
25 Sep - 08:45:59 10° W 08:54:44 41° SSW 09:03:43 10° SSE daylight
25 Sep - 10:52:47 10° W 10:57:42 15° SW 11:02:41 10° SSW daylight
26 Sep - 02:12:55 10° SSW 02:20:49 33° SE 02:28:54 10° E visible
26 Sep - 04:15:25 10° WSW 04:24:34 60° SSE 04:33:59 10° E visible
26 Sep - 06:19:40 10° W 06:29:01 65° S 06:38:40 10° ESE daylight
26 Sep - 08:24:22 10° W 08:33:09 42° SSW 08:42:12 10° SE daylight
26 Sep - 10:30:54 10° W 10:36:10 16° SW 10:41:32 10° SSW daylight
